Date String (YYYY-MM-DD hh:mm:ss) UTC,Instrument flags,Ambient pressure (hPa),Sample flow (lpm),Bypass flow (lpm),Sample temperature (°C),Ambient temperature (°C),ASC tube jacket temperature (°C),LED temperature (°C),Box temperature (°C),Sample RH (%),Span deviation,Mass concentration (μg/m³),Mass concentration (μg/m³),Mass concentration (μg/m³)
DateTimeUTC,F1_M11,P_M11,Q1_M11,Q2_M11,T1_M11,T2_M11,T3_M11,T4_M11,T5_M11,U1_M11,ZSPAN_M11,X0_M11,X2_M11,X1_M11
2021-10-10 17:00:00,,0823.3,5.00,0.00,28.3,27.6,00.0,37.3,30.1,13.3,0000.0,0004.25,0002.05,0001.61
2021-10-10 17:01:00,,0823.4,4.98,0.00,28.3,27.6,00.0,37.3,30.2,13.3,0000.0,0004.66,0002.11,0001.61
2021-10-10 17:02:00,,0823.3,5.01,0.00,28.3,27.6,00.0,37.4,30.2,13.0,0000.0,0004.83,0002.14,0001.61
2021-10-10 17:03:00,,0823.3,5.00,0.00,28.4,27.6,00.0,37.4,30.2,13.0,0000.0,0004.94,0002.16,0001.62
2021-10-10 17:04:00,,0823.4,4.99,0.00,28.4,27.7,00.0,37.4,30.2,13.3,0000.0,0005.94,0002.19,0001.62
2021-10-10 17:05:00,,0823.4,5.02,0.00,28.4,27.7,00.0,37.4,30.2,13.6,0000.0,0006.20,0002.19,0001.63
2021-10-10 17:06:00,,0823.4,5.00,0.00,28.4,27.7,00.0,37.4,30.2,13.8,0000.0,0005.97,0002.21,0001.62
2021-10-10 17:07:00,,0823.4,5.00,0.00,28.4,27.7,00.0,37.4,30.2,13.6,0000.0,0005.97,0002.21,0001.61
2021-10-10 17:08:00,,0823.4,5.00,0.00,28.5,27.8,00.0,37.4,30.3,13.6,0000.0,0006.59,0002.18,0001.61
2021-10-10 17:09:00,,0823.4,5.00,0.00,28.5,27.8,00.0,37.4,30.3,13.3,0000.0,0007.31,0002.13,0001.60
2021-10-10 17:10:00,,0823.4,4.98,0.00,28.5,27.8,00.0,37.5,30.4,13.1,0000.0,0007.01,0002.08,0001.59
2021-10-10 17:11:00,,0823.4,5.01,0.00,28.5,27.8,00.0,37.5,30.3,13.2,0000.0,0006.35,0002.00,0001.58
2021-10-10 17:12:00,,0823.4,5.01,0.00,28.5,27.8,00.0,37.5,30.3,13.1,0000.0,0005.86,0001.94,0001.58
2021-10-10 17:13:00,,0823.3,4.99,0.00,28.5,27.8,00.0,37.5,30.4,13.2,0000.0,0005.64,0001.87,0001.57
2021-10-10 17:14:00,,0823.4,4.99,0.00,28.6,27.8,00.0,37.5,30.4,13.3,0000.0,0005.42,0001.84,0001.58
2021-10-10 17:15:00,,0823.3,5.01,0.00,28.6,27.9,00.0,37.5,30.4,13.1,0000.0,0004.76,0001.83,0001.58
2021-10-10 17:16:00,,0823.2,5.02,0.00,28.6,27.9,00.0,37.6,30.5,13.1,0000.0,0004.09,0001.80,0001.57
2021-10-10 17:17:00,,0823.2,5.00,0.00,28.6,28.0,00.0,37.6,30.5,13.4,0000.0,0004.10,0001.82,0001.57
2021-10-10 17:18:00,,0823.2,4.98,0.00,28.7,28.0,00.0,37.6,30.5,13.5,0000.0,0004.10,0001.84,0001.58
2021-10-10 17:19:00,,0823.3,5.00,0.00,28.7,28.0,00.0,37.6,30.5,13.8,0000.0,0003.92,0001.85,0001.58
2021-10-10 17:20:00,,0823.2,5.02,0.00,28.7,28.0,00.0,37.6,30.6,13.8,0000.0,0002.53,0001.86,0001.58
2021-10-10 17:21:00,,0823.3,5.00,0.00,28.7,28.1,00.0,37.7,30.6,13.6,0000.0,0002.54,0001.86,0001.58
2021-10-10 17:22:00,,0823.3,5.00,0.00,28.8,28.1,00.0,37.7,30.6,13.4,0000.0,0002.48,0001.86,0001.58
2021-10-10 17:23:00,,0823.3,5.01,0.00,28.8,28.1,00.0,37.7,30.6,13.3,0000.0,0002.55,0001.88,0001.58
2021-10-10 17:24:00,,0823.3,5.00,0.00,28.8,28.1,00.0,37.7,30.6,13.3,0000.0,0002.61,0001.91,0001.58
2021-10-10 17:25:00,,0823.2,5.01,0.00,28.8,28.1,00.0,37.8,30.6,13.4,0000.0,0002.63,0001.92,0001.58
2021-10-10 17:26:00,,0823.2,5.00,0.00,28.8,28.1,00.0,37.8,30.6,13.5,0000.0,0002.70,0001.92,0001.58
2021-10-10 17:27:00,,0823.2,5.00,0.00,28.8,28.1,00.0,37.8,30.7,13.5,0000.0,0002.83,0001.93,0001.59
2021-10-10 17:28:00,,0823.2,4.99,0.00,28.9,28.1,00.0,37.8,30.7,13.3,0000.0,0002.79,0001.89,0001.58
2021-10-10 17:29:00,,0823.3,5.00,0.00,28.9,28.1,00.0,37.8,30.7,13.3,0000.0,0003.07,0001.87,0001.57
2021-10-10 17:30:00,,0823.3,5.01,0.00,28.9,28.1,00.0,37.9,30.7,13.2,0000.0,0003.10,0001.85,0001.54
2021-10-10 17:31:00,,0823.3,5.00,0.00,28.9,28.1,00.0,37.9,30.7,13.4,0000.0,0003.61,0001.88,0001.53
2021-10-10 17:32:00,,0823.3,4.99,0.00,28.9,28.1,00.0,37.9,30.6,13.2,0000.0,0003.79,0001.89,0001.53
2021-10-10 17:33:00,,0823.2,5.01,0.00,28.8,28.0,00.0,37.9,30.6,13.1,0000.0,0004.44,0001.90,0001.52
2021-10-10 17:34:00,,0823.2,4.99,0.00,28.8,28.0,00.0,37.9,30.6,13.2,0000.0,0006.06,0001.88,0001.52
2021-10-10 17:35:00,,0823.3,4.99,0.00,28.8,28.0,00.0,37.9,30.6,13.3,0000.0,0006.72,0001.86,0001.51
2021-10-10 17:36:00,,0823.2,5.02,0.00,28.8,28.0,00.0,37.9,30.5,13.3,0000.0,0006.71,0001.84,0001.50
2021-10-10 17:37:00,,0823.2,5.01,0.00,28.8,28.0,00.0,37.9,30.5,13.0,0000.0,0006.61,0001.81,0001.49
2021-10-10 17:38:00,,0823.1,4.99,0.00,28.8,27.9,00.0,37.9,30.5,12.9,0000.0,0006.49,0001.81,0001.48
2021-10-10 17:39:00,,0823.1,5.00,0.00,28.8,27.9,00.0,37.9,30.5,13.1,0000.0,0006.58,0001.86,0001.48
2021-10-10 17:40:00,,0823.1,5.00,0.00,28.8,28.0,00.0,37.9,30.5,13.4,0000.0,0006.24,0001.88,0001.48
2021-10-10 17:41:00,,0823.2,5.00,0.00,28.8,28.0,00.0,37.9,30.6,13.4,0000.0,0007.66,0001.91,0001.48
2021-10-10 17:42:00,,0823.1,5.00,0.00,28.8,28.0,00.0,37.9,30.6,13.4,0000.0,0007.92,0001.90,0001.49
2021-10-10 17:43:00,,0823.0,4.99,0.00,28.8,28.0,00.0,37.9,30.6,13.5,0000.0,0007.84,0001.91,0001.50
2021-10-10 17:44:00,,0823.1,5.00,0.00,28.8,28.0,00.0,37.9,30.5,13.4,0000.0,0007.43,0001.90,0001.50
2021-10-10 17:45:00,,0823.1,5.01,0.00,28.8,28.1,00.0,37.9,30.6,13.5,0000.0,0006.09,0001.89,0001.49
2021-10-10 17:46:00,,0823.0,5.00,0.00,28.8,28.1,00.0,37.9,30.6,13.3,0000.0,0006.40,0001.90,0001.49
2021-10-10 17:47:00,,0823.1,5.00,0.00,28.9,28.1,00.0,37.9,30.6,13.2,0000.0,0006.43,0001.92,0001.50
2021-10-10 17:48:00,,0822.9,4.99,0.00,28.9,28.1,00.0,37.9,30.6,13.0,0000.0,0006.53,0001.96,0001.50
2021-10-10 17:49:00,,0822.9,5.01,0.00,28.9,28.1,00.0,37.9,30.7,13.0,0000.0,0007.25,0001.93,0001.49
2021-10-10 17:50:00,,0822.9,4.99,0.00,28.9,28.1,00.0,37.9,30.6,13.0,0000.0,0007.80,0001.87,0001.49
2021-10-10 17:51:00,,0822.9,5.00,0.00,28.9,28.1,00.0,37.9,30.6,13.0,0000.0,0007.77,0001.85,0001.48
2021-10-10 17:52:00,,0823.0,5.01,0.00,28.9,28.1,00.0,37.9,30.7,13.1,0000.0,0006.18,0001.81,0001.47
2021-10-10 17:53:00,,0822.9,5.00,0.00,28.9,28.1,00.0,37.9,30.7,13.1,0000.0,0005.53,0001.80,0001.47
2021-10-10 17:54:00,,0823.0,4.99,0.00,28.9,28.1,00.0,37.9,30.7,13.0,0000.0,0005.44,0001.78,0001.48
2021-10-10 17:55:00,,0823.0,4.99,0.00,28.9,28.2,00.0,38.0,30.7,13.1,0000.0,0005.47,0001.79,0001.48
2021-10-10 17:56:00,,0822.9,5.01,0.00,28.9,28.2,00.0,38.0,30.7,13.1,0000.0,0005.37,0001.81,0001.49
2021-10-10 17:57:00,,0822.9,5.00,0.00,28.9,28.2,00.0,38.0,30.7,13.0,0000.0,0004.30,0001.78,0001.49
2021-10-10 17:58:00,,0822.9,5.01,0.00,28.9,28.2,00.0,38.0,30.7,13.1,0000.0,0004.60,0001.76,0001.47
2021-10-10 17:59:00,,0822.9,5.00,0.00,28.9,28.2,00.0,38.0,30.7,13.5,0000.0,0005.52,0001.74,0001.47
